TIANLIAN 1-04 (41869 NORAD) Tracking and Keplerian Element Data

This shows tracking and keplerian element data for the satellite.

Feedback or suggestion? Click here.




ElementValue
Catalog41869
NameTIANLIAN 1-04
Epoch Orbit750
Epoch Day316.59818709
Epoch Year2018
RAAN285.8096
Inclination1.5621
Eccentricity0.0010326
Argument of Perigee168.0038
Mean Anonmoly250.3583
Mean Motion1.00274032
Decay Rate-1.11E-06
L11 41869U 16072A 18316.59818709 -.00000111 00000-0 00000+0 0 9993
L22 41869 1.5621 285.8096 0010326 168.0038 250.3583 1.00274032 7508

Live tracking and technical data element details for TIANLIAN 1-04 (NORAD 41869). TIANLIAN 1-04 can be tracked NOW for your location showing map with azimuth and elevation plus other details from your city location.

Track the satellite on the map from your city or location and see movement details for azimuth, elevation, latitude, longitude, range, height, and movement on the map or in text.







IsCatalogInMostPopularTable: catalog: 41869, numindb: 123
Update: records affected: 1



GetName: 41869 TIANLIAN 1-04

Hit Count: updated at: Mon, 12 Nov 2018 18:15:30 GMT